Wind_Speed
35 31 15 21 28 28 28 19 15 13 12 13 13 14 15 16 19 21 21 19 19 20 18 19 21 18 13 6 11 13 15 17
32 22 17 17 25 24 22 17 15 16 16 16 15 15 16 17 20 19 19 19 17 18 16 17 17 16 10 11 15 21 21 16
26 17 17 17 18 22 22 22 21 21 20 21 20 20 20 19 18 18 18 15 16 16 16 15 15 13 10 9 14 17 18 20
27 17 19 19 18 17 18 18 18 17 19 19 20 18 18 17 17 16 13 13 14 13 10 10 10 11 10 9 11 16 16 17
30 20 17 16 17 17 17 16 15 14 15 17 17 17 16 16 15 13 12 11 10 11 10 10 11 12 13 12 13 16 18 19
31 22 16 14 14 15 15 14 13 13 13 13 15 15 15 14 11 12 11 10 11 11 12 13 14 16 17 19 20 22 23 24
26 21 18 17 16 16 13 12 10 10 10 11 13 13 13 12 11 12 12 12 13 13 15 16 17 19 21 23 24 24 27 26
22 22 20 19 18 15 13 11 11 10 9 10 12 13 13 11 12 14 14 15 16 17 18 20 21 21 21 22 22 23 24 25
20 24 23 22 19 17 15 13 12 9 9 10 13 14 15 13 15 14 15 18 19 17 20 22 21 20 20 21 21 21 22 22
21 26 25 23 21 17 14 13 11 10 10 12 15 15 16 17 16 18 22 23 21 22 19 20 20 20 20 21 23 24 23 23
26 26 26 23 20 16 15 13 12 13 13 14 17 14 15 19 20 20 22 24 24 25 23 24 24 24 24 25 23 26 27 26
30 28 25 21 19 17 17 16 14 14 13 15 19 17 17 20 22 23 23 24 23 25 24 24 25 27 29 28 26 29 31 31
28 30 26 25 18 17 17 17 19 20 17 17 18 19 20 23 24 24 24 24 26 24 26 27 28 29 31 33 32 32 34 36
28 31 31 26 20 20 17 20 22 23 23 24 23 22 23 25 26 26 27 27 27 29 29 30 31 32 33 34 35 37 37 33
28 30 32 30 27 24 22 24 25 27 29 31 31 29 26 27 28 30 29 28 29 30 31 31 31 33 34 33 36 33 33 34
28 31 31 33 31 30 28 31 30 33 33 33 31 31 31 30 31 31 31 30 27 27 29 32 32 33 35 34 32 35 36 38
31 31 33 35 36 36 35 37 38 37 34 37 34 34 32 31 30 32 30 29 27 27 29 30 32 35 36 35 37 37 36 36
33 32 33 37 36 35 40 43 43 41 43 44 38 36 28 28 29 27 29 27 26 28 30 32 33 35 35 35 36 35 35 35
28 36 37 45 44 39 45 48 45 45 44 39 37 35 30 22 25 25 28 29 29 31 31 34 34 32 33 34 36 36 37 36
Wind_Direction
276 278 255 231 238 245 256 273 271 262 264 265 266 269 271 273 272 279 285 295 299 306 307 302 308 316 321 326 267 264 270 279
274 273 260 244 244 249 259 261 254 256 264 267 265 265 265 263 265 276 285 291 298 300 298 298 306 310 329 327 307 292 285 280
269 266 257 245 242 245 252 256 256 259 261 262 264 266 261 262 267 274 283 289 295 290 289 304 312 305 305 290 279 294 284 291
270 263 256 248 239 234 239 245 249 253 256 259 261 261 257 257 264 272 272 278 285 284 289 309 327 336 330 311 296 295 295 297
269 263 248 237 233 230 232 237 240 243 249 254 260 257 254 254 263 262 263 275 281 274 276 293 303 307 307 297 290 290 292 292
259 249 236 225 218 220 224 228 236 246 254 257 251 251 249 257 250 254 266 274 267 268 273 282 289 291 289 288 291 295 297 297
251 233 233 228 225 223 223 234 241 251 256 259 260 251 249 243 251 258 265 268 269 273 282 292 293 290 289 295 297 297 301 301
243 236 233 228 225 223 230 241 253 259 261 269 264 248 241 249 264 266 266 270 277 285 288 290 293 294 290 285 288 288 294 298
233 234 231 227 224 229 237 249 259 263 265 257 249 249 255 258 266 265 276 276 276 281 289 290 292 291 293 299 297 299 303 304
246 237 229 223 227 237 249 259 259 262 256 252 244 257 270 274 270 274 281 284 291 299 298 295 297 301 302 300 302 306 308 310
253 240 224 224 232 246 256 254 254 256 254 251 249 263 262 264 272 283 290 297 300 301 301 303 306 304 300 300 302 305 308 310
259 244 223 227 237 252 259 268 276 269 266 260 250 263 266 268 279 288 288 289 289 288 292 295 298 297 297 297 300 301 304 306
249 239 230 229 244 252 264 270 278 279 273 265 260 271 278 274 282 284 282 282 283 285 284 285 287 290 292 295 297 299 301 300
243 234 233 239 256 261 257 257 260 265 272 273 270 269 275 285 292 288 285 284 279 275 275 278 280 282 285 289 295 299 301 299
249 240 234 243 256 265 273 257 248 247 251 256 263 264 268 279 286 284 282 281 276 275 275 275 278 281 285 290 293 296 294 292
252 240 242 246 255 260 267 263 259 252 251 256 260 261 269 280 285 284 281 282 279 276 276 278 280 282 287 289 292 290 289 286
249 249 253 258 263 263 259 262 264 260 265 265 268 266 271 282 288 282 282 283 280 277 275 278 283 286 290 291 287 287 288 290
249 245 242 250 238 249 252 253 253 255 255 257 260 260 276 280 284 279 283 279 280 281 281 282 283 284 283 284 285 287 287 286
241 235 240 233 249 241 239 246 250 249 248 249 253 262 257 271 279 283 289 284 285 283 283 284 281 281 283 283 282 284 284 285
Height
3155 3154 3157 3157 3156 3156 3156 3160 3160 3160 3161 3161 3162 3162 3162 3162 3161 3161 3161 3161 3160 3160 3157 3155 3152 3148 3147 3144 3144 3148 3150 3149
3150 3149 3150 3152 3152 3154 3154 3157 3157 3157 3157 3157 3157 3157 3157 3157 3157 3158 3158 3158 3157 3156 3154 3151 3148 3145 3143 3143 3141 3143 3144 3144
3145 3146 3145 3146 3148 3149 3150 3151 3152 3152 3153 3153 3152 3152 3152 3152 3153 3154 3154 3153 3153 3151 3149 3147 3144 3143 3141 3141 3140 3139 3140 3140
3139 3142 3141 3141 3143 3145 3146 3146 3147 3148 3148 3148 3147 3147 3147 3148 3148 3149 3149 3149 3148 3148 3146 3144 3142 3140 3138 3136 3136 3134 3134 3134
3133 3137 3137 3137 3138 3140 3141 3142 3143 3143 3143 3142 3142 3143 3143 3143 3144 3145 3145 3145 3144 3143 3141 3140 3139 3137 3136 3134 3133 3131 3129 3129
3130 3132 3133 3134 3135 3136 3137 3138 3139 3139 3138 3138 3138 3138 3139 3140 3141 3140 3140 3140 3139 3139 3138 3137 3136 3135 3133 3132 3130 3128 3126 3125
3125 3127 3128 3130 3131 3133 3134 3135 3135 3134 3133 3133 3133 3134 3135 3136 3136 3136 3135 3135 3135 3134 3134 3134 3133 3132 3130 3128 3125 3124 3121 3118
3121 3122 3123 3126 3128 3129 3130 3130 3130 3129 3129 3129 3130 3131 3132 3132 3132 3132 3132 3131 3131 3132 3130 3129 3128 3127 3125 3123 3121 3118 3116 3113
3115 3117 3119 3121 3123 3125 3125 3125 3125 3125 3125 3126 3126 3126 3127 3128 3127 3127 3128 3128 3127 3126 3124 3122 3121 3119 3117 3115 3113 3112 3110 3108
3110 3112 3114 3117 3119 3120 3120 3120 3120 3121 3121 3122 3123 3123 3122 3121 3122 3121 3120 3119 3118 3116 3115 3114 3112 3111 3110 3109 3107 3104 3103 3101
3104 3107 3110 3113 3114 3115 3115 3116 3117 3118 3118 3118 3118 3118 3118 3118 3116 3116 3113 3111 3110 3109 3107 3106 3104 3104 3103 3102 3101 3098 3096 3094
3099 3101 3106 3108 3110 3111 3111 3112 3112 3112 3113 3113 3113 3114 3114 3113 3112 3110 3109 3107 3106 3104 3102 3101 3101 3099 3098 3097 3096 3093 3090 3087
3094 3096 3100 3102 3105 3107 3107 3106 3105 3106 3108 3108 3108 3108 3108 3108 3108 3106 3104 3102 3100 3099 3098 3096 3095 3093 3091 3089 3088 3086 3083 3081
3089 3092 3093 3094 3097 3099 3101 3101 3100 3101 3101 3100 3101 3102 3101 3100 3099 3098 3096 3094 3093 3091 3090 3089 3087 3086 3084 3082 3080 3077 3074 3071
3083 3085 3087 3089 3090 3090 3093 3095 3096 3096 3096 3095 3095 3095 3095 3094 3093 3091 3090 3087 3085 3084 3083 3082 3081 3078 3077 3076 3073 3070 3067 3063
3077 3079 3083 3084 3084 3085 3086 3086 3087 3088 3090 3089 3089 3088 3087 3087 3084 3084 3081 3079 3077 3076 3075 3074 3072 3070 3069 3067 3064 3061 3058 3055
3072 3074 3077 3078 3079 3080 3079 3079 3078 3077 3079 3079 3079 3079 3080 3078 3077 3075 3074 3071 3069 3068 3068 3067 3065 3062 3059 3057 3054 3051 3048 3045
3067 3068 3070 3072 3073 3074 3075 3073 3071 3071 3070 3070 3072 3070 3073 3072 3071 3069 3068 3066 3063 3061 3060 3058 3056 3053 3051 3048 3045 3043 3038 3035
3061 3062 3063 3064 3063 3062 3062 3064 3064 3064 3064 3063 3061 3059 3060 3062 3063 3063 3062 3060 3057 3055 3052 3050 3047 3044 3041 3038 3036 3032 3029 3026